Location: Unspecified
(43.4354°N, 0.0000°E)
Time: 16:22:58
(UTC+00:00)

Vanguard 2 Rocket - Pass Details

Date: 24 June 2019
Orbit: 554 x 3326 km, 32.9° (Epoch: 21 July)

Event Time Altitude Azimuth Distance (km) Brightness Sun altitude
Rises 23:52:09 0° 261° (W) 4,531 10.4 -23.1°
Reaches altitude 10° 23:54:45 10° 256° (WSW) 3,851 10.0 -23.1°
Maximum altitude 00:05:08 52° 184° (S) 2,748 8.8 -23.1°
Drops below altitude 10° 00:22:02 10° 115° (ESE) 6,045 10.9 -23.0°
Sets 00:27:22 0° 112° (ESE) 7,237 11.3 -22.9°
